Location: Cahas Mountain Overlook
(37.0833°N, 80.1000°W)
Time: 11:16:58
(UTC-04:00)

A-11 Canister half - Pass Details

Date: 16 February 2026
Orbit: 1524 x 1683 km, 47.3° (Epoch: 16 March)

Event Time Altitude Azimuth Distance (km) Brightness Sun altitude
Rises 20:47:45 0° 292° (WNW) 4,678 12.6 -33.7°
Reaches altitude 10° 20:50:59 10° 298° (WNW) 3,691 11.7 -34.3°
Maximum altitude 20:59:53 48° 11° (NNE) 1,917 9.3 -36.0°
Enters shadow 21:00:12 48° 17° (NNE) 1,920 9.3 -36.1°
